Date String (YYYY-MM-DD hh:mm:ss) UTC,Instrument flags,absolute air pressure of the measurement (hPa),sample flow rate (lpm),inlet stack bypass flow (lpm),air temperature of the measurement (°C),ambient temperature measured by the external sensor (°C),aerosol sample conditioner tube jacket temperature (°C),OPC LED temperature (°C),internal box temperature (°C),relative humidity of the measurement (%),span deviation,mass concentration of particles derived from Lorenz-Mie calculation of OPC scattering (μg/m³),mass concentration of particles derived from Lorenz-Mie calculation of OPC scattering (μg/m³),mass concentration of particles derived from Lorenz-Mie calculation of OPC scattering (μg/m³)
DateTimeUTC,F1_M11,P_M11,Q1_M11,Q2_M11,T1_M11,T2_M11,T3_M11,T4_M11,T5_M11,U1_M11,ZSPAN_M11,X2_M11,X0_M11,X1_M11
2024-06-07 17:00:00,SystemResetWarning,0828.0,4.99,000.00,028.4,026.1,000.0,037.1,029.6,026.1,0000.0,0004.77,0024.28,0003.08
2024-06-07 17:01:00,SystemResetWarning,0828.0,5.00,000.00,028.5,026.6,000.0,037.0,029.9,025.1,0000.0,0004.75,0023.39,0003.06
2024-06-07 17:02:00,SystemResetWarning,0828.1,5.00,000.00,028.5,027.0,000.0,037.0,030.1,027.8,0000.0,0004.74,0022.71,0003.05
2024-06-07 17:03:00,SystemResetWarning,0828.1,5.00,000.00,028.6,027.4,000.0,036.9,030.3,029.4,0000.0,0004.71,0022.56,0003.04
2024-06-07 17:04:00,SystemResetWarning,0828.1,5.00,000.00,028.7,027.7,000.0,036.9,030.4,029.7,0000.0,0004.67,0022.61,0003.04
2024-06-07 17:05:00,SystemResetWarning,0828.0,5.00,000.00,028.8,028.0,000.0,036.9,030.6,028.4,0000.0,0004.65,0023.19,0003.02
2024-06-07 17:06:00,SystemResetWarning,0828.0,5.00,000.00,028.9,028.2,000.0,036.9,030.7,025.8,0000.0,0004.61,0022.35,0003.01
2024-06-07 17:07:00,SystemResetWarning,0827.9,5.00,000.00,028.9,028.4,000.0,037.0,030.8,025.7,0000.0,0004.54,0020.31,0002.99
2024-06-07 17:08:00,SystemResetWarning,0827.9,5.00,000.00,029.0,028.6,000.0,037.0,030.9,027.8,0000.0,0004.48,0019.68,0002.96
2024-06-07 17:09:00,SystemResetWarning,0827.8,5.00,000.00,029.1,028.7,000.0,037.1,031.0,027.0,0000.0,0004.45,0020.52,0002.96
2024-06-07 17:10:00,SystemResetWarning,0827.8,5.00,000.00,029.2,028.7,000.0,037.1,031.0,026.2,0000.0,0004.44,0019.91,0002.95
2024-06-07 17:11:00,SystemResetWarning,0827.8,4.99,000.00,029.0,027.1,000.0,037.2,030.2,025.4,0000.0,0004.50,0018.86,0002.96
2024-06-07 17:12:00,SystemResetWarning,0827.8,5.02,000.00,028.7,025.5,000.0,037.3,029.5,028.2,0000.0,0004.53,0018.79,0002.96
2024-06-07 17:13:00,SystemResetWarning,0827.7,5.00,000.00,028.5,025.8,000.0,037.2,029.5,027.5,0000.0,0004.56,0020.10,0002.97
2024-06-07 17:14:00,SystemResetWarning,0827.8,5.00,000.00,028.5,026.3,000.0,037.1,029.7,027.8,0000.0,0004.54,0020.43,0002.96
2024-06-07 17:15:00,SystemResetWarning,0827.8,5.01,000.00,028.5,026.7,000.0,037.0,030.0,027.2,0000.0,0004.55,0019.82,0002.93
2024-06-07 17:16:00,SystemResetWarning,0827.8,5.00,000.00,028.6,027.1,000.0,037.0,030.2,027.6,0000.0,0004.52,0019.14,0002.90
2024-06-07 17:17:00,SystemResetWarning,0827.8,5.00,000.00,028.7,027.5,000.0,037.0,030.4,028.6,0000.0,0004.49,0020.93,0002.89
2024-06-07 17:18:00,SystemResetWarning,0827.8,5.00,000.00,028.8,027.8,000.0,037.0,030.5,026.5,0000.0,0004.55,0024.38,0002.89
2024-06-07 17:19:00,SystemResetWarning,0827.8,4.99,000.00,028.8,028.1,000.0,037.0,030.7,024.9,0000.0,0004.58,0026.10,0002.88
2024-06-07 17:20:00,SystemResetWarning,0827.7,4.99,000.00,028.9,028.3,000.0,037.0,030.8,026.6,0000.0,0004.51,0025.37,0002.83
2024-06-07 17:21:00,SystemResetWarning,0827.7,5.00,000.00,029.0,028.5,000.0,037.0,030.9,024.7,0000.0,0004.52,0023.84,0002.81
2024-06-07 17:22:00,SystemResetWarning,0827.7,5.00,000.00,029.1,028.7,000.0,037.1,031.0,022.7,0000.0,0004.48,0024.50,0002.76
2024-06-07 17:23:00,SystemResetWarning,0827.7,5.00,000.00,029.2,028.8,000.0,037.1,031.1,018.5,0000.0,0004.42,0023.75,0002.68
2024-06-07 17:24:00,SystemResetWarning,0827.7,5.01,000.00,029.3,028.9,000.0,037.2,031.1,016.7,0000.0,0004.27,0023.01,0002.58
2024-06-07 17:25:00,SystemResetWarning,0827.7,4.99,000.00,029.2,028.0,000.0,037.3,030.6,017.3,0000.0,0004.11,0021.65,0002.45
2024-06-07 17:26:00,SystemResetWarning,0827.5,5.01,000.00,028.9,025.9,000.0,037.3,029.7,017.8,0000.0,0003.96,0020.70,0002.33
2024-06-07 17:27:00,SystemResetWarning,0827.5,5.01,000.00,028.6,025.6,000.0,037.3,029.5,018.9,0000.0,0003.81,0020.49,0002.22
2024-06-07 17:28:00,SystemResetWarning,0827.5,5.00,000.00,028.5,026.1,000.0,037.2,029.7,019.2,0000.0,0003.67,0018.38,0002.13
2024-06-07 17:29:00,SystemResetWarning,0827.5,5.00,000.00,028.6,026.6,000.0,037.1,029.9,018.9,0000.0,0003.49,0014.60,0002.00
2024-06-07 17:30:00,SystemResetWarning,0827.5,5.00,000.00,028.6,027.0,000.0,037.1,030.1,018.9,0000.0,0003.30,0011.75,0001.88
2024-06-07 17:31:00,SystemResetWarning,0827.5,5.00,000.00,028.7,027.4,000.0,037.0,030.3,018.4,0000.0,0003.20,0010.45,0001.79
2024-06-07 17:32:00,SystemResetWarning,0827.7,5.00,000.00,028.8,027.7,000.0,037.0,030.5,018.5,0000.0,0003.05,0010.33,0001.70
2024-06-07 17:33:00,SystemResetWarning,0827.4,5.00,000.00,028.8,028.0,000.0,037.0,030.6,016.8,0000.0,0002.83,0009.55,0001.63
2024-06-07 17:34:00,SystemResetWarning,0827.4,5.00,000.00,028.9,028.2,000.0,037.0,030.7,016.8,0000.0,0002.69,0009.66,0001.59
2024-06-07 17:35:00,SystemResetWarning,0827.8,4.99,000.00,029.0,028.4,000.0,037.1,030.8,016.4,0000.0,0002.67,0008.85,0001.57
2024-06-07 17:36:00,SystemResetWarning,0827.4,4.99,000.00,029.1,028.6,000.0,037.1,030.9,017.0,0000.0,0002.73,0008.86,0001.57
2024-06-07 17:37:00,SystemResetWarning,0827.5,5.00,000.00,029.1,028.7,000.0,037.1,031.0,016.9,0000.0,0002.77,0008.72,0001.58
2024-06-07 17:38:00,SystemResetWarning,0827.4,5.00,000.00,029.2,028.9,000.0,037.2,031.1,017.2,0000.0,0002.77,0008.72,0001.59
2024-06-07 17:39:00,SystemResetWarning,0827.4,4.99,000.00,029.2,027.7,000.0,037.3,030.4,016.8,0000.0,0002.76,0008.68,0001.59
2024-06-07 17:40:00,SystemResetWarning,0827.4,5.01,000.00,028.8,025.7,000.0,037.3,029.4,018.1,0000.0,0002.79,0008.71,0001.59
2024-06-07 17:41:00,SystemResetWarning,0827.4,5.01,000.00,028.5,025.7,000.0,037.3,029.4,017.4,0000.0,0002.87,0008.80,0001.61
2024-06-07 17:42:00,SystemResetWarning,0827.4,5.01,000.00,028.5,026.2,000.0,037.2,029.7,018.4,0000.0,0002.88,0008.61,0001.62
2024-06-07 17:43:00,SystemResetWarning,0827.4,4.99,000.00,028.5,026.6,000.0,037.1,029.9,018.0,0000.0,0002.86,0008.97,0001.63
2024-06-07 17:44:00,SystemResetWarning,0827.4,5.00,000.00,028.6,027.1,000.0,037.0,030.2,018.5,0000.0,0002.77,0008.93,0001.63
2024-06-07 17:45:00,SystemResetWarning,0827.4,5.01,000.00,028.7,027.4,000.0,037.0,030.3,019.2,0000.0,0002.78,0008.38,0001.65
2024-06-07 17:46:00,SystemResetWarning,0827.4,5.00,000.00,028.8,027.8,000.0,037.0,030.5,019.5,0000.0,0002.77,0008.46,0001.65
2024-06-07 17:47:00,SystemResetWarning,0827.4,4.99,000.00,028.8,028.0,000.0,037.0,030.6,018.4,0000.0,0002.74,0008.34,0001.66
2024-06-07 17:48:00,SystemResetWarning,0827.4,4.99,000.00,028.9,028.2,000.0,037.0,030.8,018.0,0000.0,0002.78,0008.50,0001.66
2024-06-07 17:49:00,SystemResetWarning,0827.4,5.00,000.00,029.0,028.4,000.0,037.0,030.9,016.6,0000.0,0002.79,0008.14,0001.66
2024-06-07 17:50:00,SystemResetWarning,0827.4,5.01,000.00,029.1,028.6,000.0,037.1,030.9,017.3,0000.0,0002.81,0008.20,0001.67
2024-06-07 17:51:00,SystemResetWarning,0827.4,5.00,000.00,029.2,028.8,000.0,037.1,031.0,017.2,0000.0,0002.75,0008.12,0001.67
2024-06-07 17:52:00,SystemResetWarning,0827.4,4.99,000.00,029.2,028.8,000.0,037.2,031.1,017.0,0000.0,0002.73,0008.08,0001.68
2024-06-07 17:53:00,SystemResetWarning,0827.4,4.99,000.00,029.1,027.4,000.0,037.3,030.4,017.0,0000.0,0002.71,0008.06,0001.67
2024-06-07 17:54:00,SystemResetWarning,0827.4,5.00,000.00,028.7,025.6,000.0,037.3,029.5,018.0,0000.0,0002.66,0007.74,0001.66
2024-06-07 17:55:00,SystemResetWarning,0827.4,5.02,000.00,028.6,025.9,000.0,037.3,029.5,018.6,0000.0,0002.69,0006.93,0001.67
2024-06-07 17:56:00,SystemResetWarning,0827.4,5.00,000.00,028.6,026.4,000.0,037.2,029.8,019.3,0000.0,0002.67,0007.79,0001.68
2024-06-07 17:57:00,SystemResetWarning,0827.4,4.99,000.00,028.6,026.8,000.0,037.1,030.0,018.1,0000.0,0002.66,0007.78,0001.67
2024-06-07 17:58:00,SystemResetWarning,0827.4,5.00,000.00,028.7,027.2,000.0,037.0,030.2,018.5,0000.0,0002.72,0007.80,0001.69
2024-06-07 17:59:00,SystemResetWarning,0827.4,5.00,000.00,028.7,027.5,000.0,037.0,030.4,018.6,0000.0,0002.72,0007.69,0001.70
